www.pogodaiklimat.ru

Погода и климат >> Архив погоды >> Китай >> Guai Zi Hu


ПОГОДА в Guai Zi Hu

  • Прогноз погоды в Guai Zi Hu
  • Монитор погоды в Guai Zi Hu
  • Климат города

АРХИВ ПОГОДЫ в Guai Zi Hu

Время (UTC), дата Ветер
(напр.,м/с)
 
Видим.   Явления Облачность Т
(С)
Тd
(С)
f
(%)
Тe
(С)
Тes
(С)
Комфортность P
(гПа)
Po
(гПа)
Тmin
(С)
Tmax
(С)
R
(мм)
R24
(мм)
S
(см)
21 12.08 В 4 30 км н/о +20.0 +3.7 34 +21 +21 комфорт 1003.5 1004.0
00 13.08 В 4 28 км ясно +20.0 +4.9 37 +21 +22 комфорт 1004.8 901.0
03 13.08 В 4 26 км ясно +30.4 +4.2 19 +28 +37 жарко 1004.1 866.1
06 13.08 В 8 26 км 3/3
[]
+34.2 +0.8 12 +31 +33 жарко 1002.1 899.8 +18.7
09 13.08 В 6 25 км 3/3
[]
+34.9 -1.2 10 +31 +33 жарко 1001.9 1002.0
12 13.08 В 5 30 км 6/6
[]
+31.5 -1.3 12 +28 +28 жарко 1002.8 1003.0
18 13.08 Ю 5 30 км ?/? +25.8 +0.5 19 +24 +24 комфорт 1001.5 899.4 +35.3
21 13.08 Ю 6 28 км ?/? +25.4 +1.5 21 +24 +24 комфорт 1001.2 1001.0
00 14.08 В 1 28 км 9/9
[]
+24.9 +3.5 25 +24 +24 комфорт 1003.2 1018.6
03 14.08 В 9 23 км 9/9
[]
+34.0 -0.6 11 +30 +31 жарко 1001.9 1002.0
06 14.08 В 5 25 км 9/9
[]
+35.7 -2.0 9 +32 +33 жарко 1000.5 1001.0 +21.9
09 14.08 В 8 28 км 9/9
[]
+36.7 -1.3 9 +33 +33 жарко 999.1 999.0
12 14.08 В 8 25 км 8/8
[]
+33.3 +0.1 12 +30 +30 жарко 1000.3 1000.0
18 14.08 В 2 30 км ?/? +26.1 -1.7 16 +24 +24 комфорт 1001.3 1001.0 +37.4
21 14.08 В 2 30 км ?/? +22.5 -0.9 21 +22 +22 комфорт 1002.3 1002.0
00 15.08 В 4 30 км ясно +23.5 -0.1 21 +22 +24 комфорт 1003.5 1004.0
03 15.08 В 5 28 км ясно +33.3 -1.1 11 +30 +37 жарко 1002.3 1002.0
06 15.08 В 6 23 км 5/5
[]
+37.1 +0.5 10 +33 +37 жарко 999.8 1000.0 +20.1
09 15.08 В 11 17 км 8/8
[]
+37.9 -0.4 9 +34 +34 очень
жарко
998.2 998.0
12 15.08 В 8 22 км 9/9
[]
+34.6 +1.1 12 +31 +31 жарко 998.6 999.0
18 15.08 В 5 29 км ?/? +26.7 +3.2 22 +25 +25 комфорт 999.0 999.0 +38.5
21 15.08 В 7 30 км ?/? +25.5 +3.5 24 +25 +25 комфорт 999.0 999.0
00 16.08 В 7 29 км 9/9
[]
+24.7 +6.5 31 +25 +25 комфорт 1000.6 1001.0
03 16.08 В 7 20 км 9/9 2000 м
[]
+30.7 +6.6 22 +29 +30 жарко 999.7 1000.0
06 16.08 В 9 22 км 9/9 2000 м
[]
+35.4 +6.6 17 +33 +33 жарко 998.1 1015.2 +23.7
09 16.08 В 9 15 км 9/9 2000 м
[]
+36.4 +4.6 14 +34 +34 очень
жарко
996.7 997.0
12 16.08 В 11 13 км 9/9 2000 м
[]
+33.2 +4.0 16 +31 +31 жарко 997.9 895.9
18 16.08 В 12
{18}
6000 м ?/? +28.3 +7.0 26 +28 +28 жарко 998.0 998.0 +36.9
21 16.08 В 12
{18}
15 км ?/? +26.6 +7.6 30 +26 +26 жарко 998.5 999.0
00 17.08 В 8
{17}
29 км 10/10
[]
+25.3 +8.3 34 +26 +26 жарко 1001.4 899.1
03 17.08 В 5 27 км 10/10
[]
+27.3 +8.7 31 +27 +27 жарко 1002.2 865.2
06 17.08 В 4 24 км 9/9
[]
+31.2 +8.9 25 +30 +31 жарко 1000.3 898.3 +24.9
09 17.08 В 4 28 км 9/9
[]
+33.0 +7.1 20 +31 +32 жарко 998.8 999.0
12 17.08 В 3 26 км 9/9
[]
+31.6 +7.3 22 +30 +30 жарко 998.6 896.3
18 17.08 В 4 30 км ?/? +26.1 +5.7 27 +25 +25 комфорт 999.8 897.5 +34.1
21 17.08 В 7 30 км ?/? +22.1 +5.5 34 +23 +23 комфорт 1000.8 1001.0
00 18.08 В 5 30 км 5/5
[]
+23.7 +6.5 33 +24 +24 комфорт 1001.4 1018.6
03 18.08 В 7 23 км ясно +31.7 +6.7 21 +30 +34 жарко 1000.7 1001.0
06 18.08 В 7 24 км ясно +35.8 +6.1 16 +33 +38 жарко 998.5 999.0 +20.1
09 18.08 В 6 23 км 5/5 1500 м
[]
+35.9 +6.2 16 +33 +35 жарко 997.9 998.0
12 18.08 В 7 27 км 9/9 2000 м
[]
+33.8 +6.2 18 +32 +32 жарко 998.0 998.0
18 18.08 Ю 4 17 км ?/? +29.6 +13.8 38 +31 +31 жарко 998.1 998.0 +36.6
21 18.08 З 9 12 км ?/? +23.3 +12.6 51 +26 +26 жарко 1000.8 1001.0
00 19.08 З 9 9000 м слабый дождь 9/9
[]
+21.6 +13.3 59 +24 +24 комфорт 1004.4 1004.0 0.0
03 19.08 З 8 10 км 9/9
[]
+23.6 +12.3 49 +25 +26 комфорт 1005.5 1006.0
06 19.08 З 9 19 км {дождь} 10/10
[]
+24.2 +11.2 44 +26 +26 жарко 1006.0 1006.0 +21.5 0.0
09 19.08 З 10 21 км 9/9
[]
+25.7 +7.3 31 +26 +26 жарко 1006.7 1007.0
12 19.08 З 8 25 км 9/9
[]
+25.9 +7.0 30 +26 +26 жарко 1006.5 1007.0

 

Местоположение метеостанции Guai Zi Hu (Китай): широта 41.37 долгота 102.36 высота над уровнем моря 960 м.

В архиве по умолчанию представлена погода в Guai Zi Hu за последнюю неделю. Архивные данные за месяц целиком и за предыдущие месяцы, начиная с января 2011 года, Вы можете получить, выбрав интересующий диапазон дат из раскрывающегося списка и нажав кнопку "Ввод!".

Внимание! Время в таблицах - всемирное. Для получения местного времени необходимо прибавить поправку, которая в Guai Zi Hu равна 8 ч.

Смотрите также архив погоды в соседних городах и на ближайших метеорологических станциях:

Погода в Ejin Qi (Китай) (126 км)
Погода в Bayan Mod (Китай) (192 км)
Погода в Shine Usa (Монголия) (246 км)
Погода в Dalanzadgad (Монголия) (298 км)
Погода в Minqin (Китай) (311 км)
Погода в Zhangye (Китай) (317 км)
Погода в Hails (Китай) (335 км)
Погода в Jartai (Китай) (337 км)
Погода в Bogd (Монголия) (365 км)
Погода в Jiuquan (Китай) (373 км)

Пояснения к столбцам:

Ветер - указаны скорость ветра в м/с - средняя за 10 мин, порывы в срок и между сроками (в фигурных скобках) и направление, откуда дует ветер: С - северный, СВ - северо-восточный, В - восточный, ЮВ - юго-восточный, Ю - южный, ЮЗ - юго-западный, З - западный, СЗ - северо-западный.
Видимость - горизонтальная дальность видимости в метрах или километрах. При видимости от 1 до 10 км при отсутствии осадков обычно наблюдается дымка, при ухудшении видимости до 1 км и менее - туман. В сухую погоду видимость может ухудшаться дымом, пылью или мглою.
Явления - указаны атмосферные явления, наблюдавшиеся в срок или в последний час перед сроком; фигурными скобками обозначены явления, наблюдавшиеся между сроками (за 1-3 часа до срока); квадратными скобками обозначены град или гололедные отложения с указанием их диаметра в мм.
Облачность - указаны через наклонную черту общая и нижняя облачность в баллах и высота нижней границы облаков в метрах; квадратными скобками обозначены формы облаков: Ci - перистые, Cs - перисто-слоистые, Cc - перисто-кучевые, Ac - высококучевые, As - высокослоистые, Sc - слоисто-кучевые, Ns - слоисто-дождевые, Cu - кучевые, Cb - кучево-дождевые. Подробнее классификацию облаков см. в Атласе облаков (PDF).
T - Температура воздуха - температура, измеренная на высоте 2 м над землей.
Td - Температура точки росы - температура, при понижении до которой содержащийся в воздухе водяной пар достигнет насыщения.
f - Относительная влажность воздуха - влажноcть воздуха, измеренная на высоте 2 м над землей.
Te - Эффективная температура - температура, которую ощущает одетый по сезону человек в тени. Характеристика душности погоды. При расчете учитывается влияние влажности воздуха и скорости ветра на теплоощущения человека.
Tes - Эффективная температура на солнце - температура, которую ощущает человек, с поправкой на солнечный нагрев. Характеристика знойности погоды. Зависит от высоты солнца над горизонтом, облачности и скорости ветра. Ночью, в пасмурную погоду, а также при ветре 12 м/с и более поправка равна нулю.
P - Атмосферное давление - приведенное к уровню моря атмосферное давление.
Po - Атмосферное давление - измеренное на уровне метеостанции атмосферное давление.
Tmin - Минимальная температура - минимум температуры воздуха на высоте 2 м над землей.
Tmax - Максимальная температура - максимум температуры воздуха на высоте 2 м над землей.
R - Количество осадков - Количество выпавших осадков за период времени, мм. При наведении курсора мыши на число - период времени, за который выпало указанное количество осадков.
R24 - Количество осадков - Количество выпавших осадков за 24 часа, мм.
S - Снежный покров - Высота снежного покрова, см. При наведении курсора мыши на число - состояние снежного покрова и степень покрытия местности в баллах.